When you browse on this site, cookies collect data to enhance your experience and personalize the content and advertising you see.
Visit our Privacy Policy to learn more. By continuing to use the site, you agree to this use of cookies and data.
  • In France
  • List of Countries
  • For 7 days
  • Water Temperature
  • Satellite Maps
  • Weather Map
  • Weather Widgets
  • user-avatar
    Login

    Hourly Weather Korçe

    Today, 21 March, Thursday

    Time Temperature Precipitation Wind Pressure Humidity
    00:00 +7°C° 0 mm 2 mps 670 mmHg 85%
    01:00 +7°C° 0 mm 2 mps 670 mmHg 88%
    02:00 +6°C° 0 mm 2 mps 670 mmHg 89%
    03:00 +6°C° 0 mm 2 mps 670 mmHg 90%
    04:00 +6°C° 0 mm 2 mps 670 mmHg 90%
    05:00 +6°C° 0 mm 2 mps 671 mmHg 88%
    06:00 +5°C° 0 mm 3 mps 671 mmHg 85%
    07:00 +7°C° 0 mm 3 mps 671 mmHg 83%
    08:00 +8°C° 0 mm 3 mps 672 mmHg 76%
    09:00 +9°C° 0 mm 3 mps 672 mmHg 69%
    10:00 +11°C° 0 mm 3 mps 673 mmHg 62%
    11:00 +11°C° 0 mm 3 mps 673 mmHg 60%
    12:00 +11°C° 0 mm 3 mps 673 mmHg 58%
    13:00 +12°C° 0 mm 4 mps 673 mmHg 57%
    14:00 +11°C° 0 mm 3 mps 672 mmHg 57%
    15:00 +11°C° 0 mm 3 mps 672 mmHg 58%
    16:00 +11°C° 0 mm 3 mps 672 mmHg 58%
    17:00 +9°C° 0 mm 3 mps 671 mmHg 65%
    18:00 +8°C° 0 mm 3 mps 671 mmHg 71%
    19:00 +6°C° 0 mm 2 mps 671 mmHg 77%
    20:00 +6°C° 0 mm 2 mps 671 mmHg 80%
    21:00 +5°C° 0 mm 2 mps 671 mmHg 82%
    22:00 +5°C° 0 mm 2 mps 672 mmHg 85%
    23:00 +5°C° 0 mm 2 mps 672 mmHg 86%

    Tomorrow, 22 March, Friday

    Time Temperature Precipitation Wind Pressure Humidity
    00:00 +4°C° 0 mm 2 mps 672 mmHg 87%
    01:00 +4°C° 0 mm 2 mps 672 mmHg 88%
    02:00 +4°C° 0 mm 2 mps 671 mmHg 88%
    03:00 +4°C° 0 mm 2 mps 671 mmHg 89%
    04:00 +3°C° 0 mm 2 mps 671 mmHg 90%
    05:00 +4°C° 0 mm 2 mps 671 mmHg 88%
    06:00 +4°C° 0 mm 2 mps 672 mmHg 86%
    07:00 +4°C° 0 mm 3 mps 672 mmHg 83%
    08:00 +7°C° 0 mm 3 mps 672 mmHg 75%
    09:00 +8°C° 0 mm 3 mps 672 mmHg 66%
    10:00 +10°C° 0 mm 3 mps 673 mmHg 58%
    11:00 +11°C° 0 mm 3 mps 673 mmHg 55%
    12:00 +11°C° 0 mm 3 mps 673 mmHg 52%
    13:00 +12°C° 0 mm 3 mps 672 mmHg 49%
    14:00 +12°C° 0 mm 3 mps 672 mmHg 49%
    15:00 +11°C° 0 mm 3 mps 672 mmHg 49%
    16:00 +11°C° 0 mm 3 mps 671 mmHg 50%
    17:00 +10°C° 0 mm 3 mps 671 mmHg 57%
    18:00 +8°C° 0 mm 2 mps 670 mmHg 63%
    19:00 +6°C° 0 mm 2 mps 670 mmHg 70%
    20:00 +6°C° 0 mm 2 mps 670 mmHg 73%
    21:00 +5°C° 0 mm 2 mps 670 mmHg 76%
    22:00 +5°C° 0 mm 2 mps 670 mmHg 79%
    23:00 +4°C° 0 mm 2 mps 670 mmHg 80%

    Day after tomorrow, 23 March, Saturday

    Time Temperature Precipitation Wind Pressure Humidity
    00:00 +4°C° 0 mm 2 mps 670 mmHg 81%
    01:00 +4°C° 0 mm 2 mps 669 mmHg 83%
    02:00 +4°C° 0 mm 2 mps 669 mmHg 83%
    03:00 +3°C° 0 mm 2 mps 669 mmHg 83%
    04:00 +3°C° 0 mm 2 mps 669 mmHg 84%
    05:00 +4°C° 0 mm 2 mps 669 mmHg 82%
    06:00 +4°C° 0 mm 2 mps 669 mmHg 79%
    07:00 +5°C° 0 mm 2 mps 669 mmHg 77%
    08:00 +7°C° 0 mm 3 mps 670 mmHg 69%
    09:00 +9°C° 0 mm 3 mps 670 mmHg 61%
    10:00 +11°C° 0 mm 3 mps 671 mmHg 53%
    11:00 +12°C° 0 mm 3 mps 670 mmHg 51%
    12:00 +12°C° 0 mm 3 mps 670 mmHg 49%
    13:00 +13°C° 0 mm 3 mps 670 mmHg 47%
    14:00 +13°C° 0 mm 3 mps 670 mmHg 48%
    15:00 +12°C° 0 mm 3 mps 670 mmHg 50%
    16:00 +12°C° 0 mm 3 mps 669 mmHg 51%
    17:00 +12°C° 0 mm 2 mps 669 mmHg 57%
    18:00 +9°C° 0 mm 2 mps 669 mmHg 63%
    19:00 +7°C° 0 mm 2 mps 669 mmHg 69%
    20:00 +7°C° 0 mm 2 mps 669 mmHg 71%
    21:00 +6°C° 0 mm 2 mps 669 mmHg 73%
    22:00 +6°C° 0 mm 2 mps 669 mmHg 74%
    23:00 +5°C° 0 mm 2 mps 669 mmHg 76%

    24 March, Sunday

    Time Temperature Precipitation Wind Pressure Humidity
    00:00 +5°C° 0 mm 2 mps 669 mmHg 77%
    01:00 +5°C° 0 mm 2 mps 669 mmHg 78%
    02:00 +5°C° 0 mm 2 mps 669 mmHg 79%
    03:00 +4°C° 0 mm 2 mps 669 mmHg 81%
    04:00 +4°C° 0 mm 2 mps 669 mmHg 82%
    05:00 +5°C° 0 mm 2 mps 669 mmHg 80%
    06:00 +5°C° 0 mm 2 mps 669 mmHg 78%
    07:00 +6°C° 0 mm 2 mps 670 mmHg 76%
    08:00 +8°C° 0 mm 2 mps 670 mmHg 68%
    09:00 +10°C° 0 mm 2 mps 671 mmHg 59%
    10:00 +13°C° 0 mm 2 mps 671 mmHg 51%
    11:00 +14°C° 0 mm 2 mps 671 mmHg 48%
    12:00 +15°C° 0 mm 1 mps 672 mmHg 44%
    13:00 +16°C° 0 mm 1 mps 672 mmHg 41%
    14:00 +15°C° 0 mm 1 mps 671 mmHg 43%
    15:00 +15°C° 0 mm 2 mps 671 mmHg 46%
    16:00 +14°C° 0 mm 2 mps 670 mmHg 48%
    17:00 +13°C° 0 mm 2 mps 670 mmHg 56%
    18:00 +11°C° 0 mm 1 mps 670 mmHg 64%
    19:00 +9°C° 0 mm 1 mps 669 mmHg 72%
    20:00 +9°C° 0 mm 1 mps 669 mmHg 72%
    21:00 +8°C° 0 mm 1 mps 669 mmHg 73%
    22:00 +8°C° 0 mm 1 mps 669 mmHg 74%
    23:00 +7°C° 0 mm 1 mps 669 mmHg 74%

    25 March, Monday

    Time Temperature Precipitation Wind Pressure Humidity
    00:00 +7°C° 0 mm 1 mps 669 mmHg 74%
    01:00 +7°C° 0 mm 1 mps 668 mmHg 74%
    02:00 +7°C° 0 mm 1 mps 668 mmHg 74%
    03:00 +6°C° 0 mm 1 mps 668 mmHg 74%
    04:00 +6°C° 0 mm 1 mps 668 mmHg 74%
    05:00 +7°C° 0 mm 1 mps 668 mmHg 71%
    06:00 +8°C° 0 mm 1 mps 668 mmHg 68%
    07:00 +9°C° 0 mm 1 mps 668 mmHg 65%
    08:00 +11°C° 0 mm 1 mps 669 mmHg 60%
    09:00 +12°C° 0 mm 1 mps 669 mmHg 54%
    10:00 +14°C° 0 mm 1 mps 669 mmHg 48%
    11:00 +15°C° 0 mm 2 mps 669 mmHg 47%
    12:00 +15°C° 0 mm 2 mps 669 mmHg 45%
    13:00 +16°C° 0 mm 3 mps 668 mmHg 44%
    14:00 +14°C° 0 mm 3 mps 668 mmHg 48%
    15:00 +13°C° 0 mm 3 mps 667 mmHg 52%
    16:00 +13°C° 0 mm 3 mps 667 mmHg 56%
    17:00 +11°C° 0 mm 3 mps 666 mmHg 64%
    18:00 +9°C° 0 mm 2 mps 665 mmHg 73%
    19:00 +9°C° 0 mm 1 mps 665 mmHg 81%
    20:00 +8°C° 0 mm 1 mps 665 mmHg 83%
    21:00 +7°C° 0 mm 1 mps 665 mmHg 85%
    22:00 +7°C° 0 mm 1 mps 664 mmHg 87%
    23:00 +7°C° 0 mm 1 mps 664 mmHg 86%

    26 March, Tuesday

    Time Temperature Precipitation Wind Pressure Humidity
    00:00 +6°C° 0 mm 1 mps 664 mmHg 84%
    01:00 +5°C° 0 mm 0 mps 664 mmHg 82%
    02:00 +6°C° 0 mm 1 mps 663 mmHg 81%
    03:00 +5°C° 0 mm 1 mps 663 mmHg 79%
    04:00 +5°C° 0 mm 1 mps 663 mmHg 77%
    05:00 +6°C° 0 mm 1 mps 663 mmHg 74%
    06:00 +6°C° 0 mm 1 mps 663 mmHg 70%
    07:00 +6°C° 0 mm 0 mps 664 mmHg 67%
    08:00 +9°C° 0 mm 1 mps 664 mmHg 60%
    09:00 +9°C° 0 mm 2 mps 664 mmHg 53%
    10:00 +12°C° 0 mm 2 mps 665 mmHg 46%
    11:00 +11°C° 0 mm 3 mps 664 mmHg 45%
    12:00 +12°C° 0 mm 3 mps 664 mmHg 44%
    13:00 +13°C° 0 mm 3 mps 664 mmHg 44%
    14:00 +12°C° 0.1 mm 3 mps 664 mmHg 47%
    15:00 +12°C° 0.1 mm 4 mps 663 mmHg 50%
    16:00 +11°C° 0.1 mm 4 mps 663 mmHg 54%
    17:00 +9°C° 0 mm 3 mps 663 mmHg 63%
    18:00 +8°C° 0 mm 2 mps 663 mmHg 72%
    19:00 +6°C° 0 mm 2 mps 663 mmHg 81%
    20:00 +7°C° 0.1 mm 1 mps 663 mmHg 83%
    21:00 +7°C° 0.1 mm 1 mps 663 mmHg 84%
    22:00 +7°C° 0.1 mm 1 mps 664 mmHg 86%
    23:00 +6°C° 0.2 mm 1 mps 664 mmHg 88%
    Show more